FENGYUN 1C DEB

Satellite information

Favourite Embed

Satellite Type and Status

DEBRISIN ORBIT

Key statistics

Satellite FENGYUN 1C DEB at a glance.

Uptime

9714

Days in orbit

Revolutions

≈ 14.7

Per day

Orbit

SSO

Sun Synchronous Orbit

Inclination

98.7

Latest

Satellite identification and parameters

Extended collection of information and parameters for FENGYUN 1C DEB.

Object identification

Identified? True

Debris? True

Object name: FENGYUN 1C DEB

International designator: 1999-025JF

Object number (NORAD): 29933

Object ID (CCSDS): 29933

Country: PEOPLES REPUBLIC OF CHINA (PRC)

Current information (Y/N): Y

RCS size: SMALL

Orbital parameters

Period: 98.236 minutes

Inclination: 98.7485 deg

SMA: 7052.455 km

Apoapsis: 677.422 km

Periapsis: 671.218 km

RAAN: 89.4258 deg

Eccentricy: 0.00043987

Argument of periapsis: 330.7256 deg

Mean anomaly: 83.3419 deg

Mean motion: 14.65859234 rev/day

Mean motion (dot): 0.00028677 rev/day2

B* drag term: 0.0052378461 1/REarth

Two-line elements (TLE)

Creation date: Dec. 12, 2025, 10:14 a.m.

Reference frame: TEME

Reference center: EARTH

Epoch: Dec. 12, 2025, 6:10 a.m. UTC

TLE line 0: 0 FENGYUN 1C DEB

TLE line 1: 1 29933U 99025JF 25346.25760478 .00028677 00000-0 52378-2 0 9997

TLE line 2: 2 29933 98.7485 89.4258 0004399 330.7256 83.3419 14.65859234984989

Live tracking on map

Real-time ground track for satellite FENGYUN 1C DEB.

In-orbit conjunctions

A list of the most updated potential collisions computed for object FENGYUN 1C DEB.

Target Orbit TCA Probability of collision Miss distance Type
COSMOS 2251 DEB LEO 2025-11-04 22:05:36 0.0001634999 271.0 (m) DEBRIS
CZ-6A DEB LEO 2025-03-04 06:46:12 0.000126677 561.0 (m) DEBRIS
CZ-4B R/B SSO 2024-12-09 04:43:45 0.0001446308 475.0 (m) ROCKET BODY
FENGYUN 1C DEB SSO 2024-07-09 03:27:16 0.0001119567 162.0 (m) DEBRIS

Associated space launch

Chinese polar orbiting meteorological satellite

FENGYUN 1C DEB was lifted into orbit during the mission ‘Long March 4B | Feng Yun 1C’, on board a Long March 4B space rocket.

The launch took place on May 10, 1999, 1:33 a.m. from Launch Complex 7.

For more information about the launch, click the button.

Launch to space Long March 4B | Feng Yun 1C
Long March 4B | Feng Yun 1C

Agency: N/A

Status: Launch Successful

Launch date: May 10, 1999, 1:33 a.m. UTC

Rocket: Long March 4B

Launch pad: Launch Complex 7

Location: Taiyuan Satellite Launch Center, People's Republic of China

...

Latest news about this satellite

There are no fresh news available about this satellite. Check back as we update our databases every day.


Newsletter sign-up

Weekly statistics, charts and insights to help you stay on top of the space industry.